Chesapeake, VA

5:36 PM EST on February 21, 2017 (GMT -0500)
Fentress Naval Air Landing Field

Weather History for KNFE - December, 2013

Change the Weather History Date:

Sunday, December 22, 2013

  Actual Average (KNTU) Record (KNTU)
Temperature  
Mean Temperature 76 °F -  
Max Temperature 84 °F 48 °F 80 °F (2013)
Min Temperature 68 °F 31 °F 21 °F (1996)
Cooling Degree Days 11    
Growing Degree Days 26 (Base 50)    
Moisture  
Dew Point 63 °F    
Average Humidity 72    
Maximum Humidity 81    
Minimum Humidity 51    
Precipitation  
Precipitation 0.00 in - - ()
Sea Level Pressure  
Sea Level Pressure 30.09 in    
Wind  
Wind Speed 9 mph (SSW)    
Max Wind Speed 17 mph    
Max Gust Speed 26 mph    
Visibility 10 miles    
Events      
Averages and records for this station are not official NWS values.
T = Trace of Precipitation, MM = Missing Value Source: NWS Daily Summary

Daily Weather History Graph

Daily Weather History Graph

Search for Another Location

Airport or City:

Trip Planner

Search our weather history database for the weather conditions in past years. The results will help you decide how hot, cold, wet, or windy it might be!

Date:

Astronomy

Dec. 22, 2013 Rise Set
Actual Time 7:13 AM EST 4:52 PM EST
Civil Twilight 6:44 AM EST 5:21 PM EST
Nautical Twilight 6:12 AM EST 5:54 PM EST
Astronomical Twilight 5:40 AM EST 6:25 PM EST
Moon 9:55 PM EST (12/22) 10:15 AM EST (12/22)
Length of Visible Light 10h 36m
Length of Day
9h 38m
Waning Gibbous, 77% of the Moon is Illuminated
Dec 22
Waning Gibbous
Dec 25
Last Quarter
Jan 1
New
Jan 7
First Quarter
Jan 15
Full

Hourly Weather History & Observations

Time (EST) Temp. Heat Index Dew Point Humidity Pressure Visibility Wind Dir Wind Speed Gust Speed Precip Events Conditions
12:46 AM 69.1 °F - 63.0 °F 81% 30.08 in 10.0 mi Variable 6.9 mph - N/A   Mostly Cloudy
12:56 AM 69.1 °F - 63.0 °F 81% 30.09 in 10.0 mi Variable 4.6 mph - N/A   Mostly Cloudy
1:10 AM 69.1 °F - 63.0 °F 81% 30.08 in 10.0 mi SSW 8.1 mph 18.4 mph N/A   Scattered Clouds
1:34 AM 69.1 °F - 63.0 °F 81% 30.07 in 10.0 mi SSW 9.2 mph 18.4 mph N/A   Mostly Cloudy
1:56 AM 70.0 °F - 64.0 °F 81% 30.07 in 10.0 mi SSW 11.5 mph 26.5 mph N/A   Mostly Cloudy
2:56 AM 71.1 °F - 64.0 °F 78% 30.07 in 10.0 mi SSW 15.0 mph 24.2 mph N/A   Mostly Cloudy
3:56 AM 71.1 °F - 64.9 °F 81% 30.06 in 10.0 mi SSW 11.5 mph 23.0 mph N/A   Mostly Cloudy
4:56 AM 71.1 °F - 64.0 °F 78% 30.06 in 10.0 mi SSW 10.4 mph 19.6 mph N/A   Overcast
5:35 AM 71.1 °F - 64.0 °F 78% 30.06 in 10.0 mi SSW 8.1 mph 18.4 mph N/A   Overcast
5:56 AM 71.1 °F - 64.0 °F 78% 30.07 in 10.0 mi Variable 6.9 mph - N/A   Overcast
6:44 AM 71.1 °F - 64.0 °F 78% 30.08 in 10.0 mi Variable 6.9 mph - N/A   Overcast
6:56 AM 71.1 °F - 64.0 °F 78% 30.09 in 10.0 mi SSW 8.1 mph - N/A   Overcast
7:32 AM 71.1 °F - 64.0 °F 78% 30.09 in 10.0 mi SSW 8.1 mph - N/A   Overcast
7:56 AM 71.1 °F - 64.0 °F 78% 30.09 in 10.0 mi SSW 9.2 mph 20.7 mph N/A   Mostly Cloudy
8:15 AM 71.1 °F - 64.0 °F 78% 30.08 in 10.0 mi South 12.7 mph 23.0 mph N/A   Scattered Clouds
8:23 AM 72.0 °F - 64.9 °F 78% 30.09 in 10.0 mi SSW 13.8 mph 19.6 mph N/A   Mostly Cloudy
8:32 AM 72.0 °F - 64.9 °F 78% 30.09 in 10.0 mi SSW 11.5 mph 21.9 mph N/A   Mostly Cloudy
8:56 AM 73.0 °F - 64.9 °F 76% 30.10 in 10.0 mi SSW 11.5 mph 18.4 mph N/A   Overcast
9:18 AM 73.9 °F - 64.9 °F 73% 30.09 in 10.0 mi SSW 11.5 mph 21.9 mph N/A   Scattered Clouds
9:25 AM 75.0 °F - 64.9 °F 71% 30.10 in 10.0 mi SSW 9.2 mph 21.9 mph N/A   Mostly Cloudy
9:49 AM 77.0 °F - 64.9 °F 66% 30.10 in 10.0 mi SSW 12.7 mph 23.0 mph N/A   Scattered Clouds
9:56 AM 77.0 °F - 64.9 °F 66% 30.10 in 10.0 mi SSW 12.7 mph 23.0 mph N/A   Scattered Clouds
10:39 AM 77.0 °F - 64.9 °F 66% 30.09 in 10.0 mi SSW 16.1 mph 25.3 mph N/A   Mostly Cloudy
10:56 AM 78.1 °F - 64.9 °F 64% 30.10 in 10.0 mi SW 8.1 mph 20.7 mph N/A   Mostly Cloudy
11:56 AM 79.0 °F - 64.9 °F 62% 30.09 in 10.0 mi SW 10.4 mph 23.0 mph N/A   Overcast
12:23 PM 80.1 °F 81.9 °F 64.9 °F 60% 30.07 in 10.0 mi SSW 10.4 mph 20.7 mph N/A   Overcast
12:56 PM 82.9 °F 84.6 °F 64.9 °F 54% 30.07 in 10.0 mi North - - N/A   Partly Cloudy
1:56 PM 84.0 °F 85.4 °F 64.0 °F 51% 30.06 in 10.0 mi SSW 12.7 mph 20.7 mph N/A   Scattered Clouds
2:56 PM 82.9 °F 84.4 °F 64.0 °F 53% 30.05 in 10.0 mi SSW 10.4 mph 18.4 mph N/A   Mostly Cloudy
3:56 PM 81.0 °F 82.2 °F 63.0 °F 54% 30.07 in 10.0 mi Variable 5.8 mph - N/A   Clear
4:56 PM 78.1 °F - 63.0 °F 60% 30.08 in 10.0 mi SSW 3.5 mph - N/A   Clear
5:56 PM 73.9 °F - 62.1 °F 66% 30.10 in 10.0 mi North 6.9 mph - N/A   Overcast
6:56 PM 71.1 °F - 59.0 °F 66% 30.12 in 10.0 mi ENE 3.5 mph - N/A   Overcast
7:41 PM 69.1 °F - 57.9 °F 68% 30.12 in 10.0 mi ENE 4.6 mph - N/A   Overcast
7:56 PM 69.1 °F - 57.9 °F 68% 30.13 in 10.0 mi NE 4.6 mph - N/A   Overcast
8:56 PM 68.0 °F - 57.9 °F 70% 30.12 in 10.0 mi Calm Calm - N/A   Mostly Cloudy
9:36 PM 68.0 °F - 57.9 °F 70% 30.12 in 10.0 mi Calm Calm - N/A   Overcast
9:56 PM 68.0 °F - 57.9 °F 70% 30.12 in 10.0 mi Calm Calm - N/A   Overcast
10:07 PM 68.0 °F - 59.0 °F 73% 30.11 in 10.0 mi Calm Calm - N/A   Overcast
10:56 PM 68.0 °F - 61.0 °F 78% 30.11 in 10.0 mi South 9.2 mph - N/A   Mostly Cloudy
11:05 PM 70.0 °F - 63.0 °F 78% 30.10 in 10.0 mi South 10.4 mph - N/A   Scattered Clouds
11:43 PM 71.1 °F - 64.9 °F 81% 30.09 in 10.0 mi South 17.3 mph - N/A   Scattered Clouds
11:56 PM 71.1 °F - 64.9 °F 81% 30.10 in 10.0 mi South 16.1 mph - N/A   Scattered Clouds